Theta_e
301 301 299 298 296 296 296 296 297 296 296 296 296 296 295 295 294 294 295 294 294 293 292 291 291 290 290 290 291 291 291 290 290 290 290 290 290 289 289 289 288 288 287 287 286 287 285 284 284 284 283 284 283 284 284 283 283 283 284 284 282 282 282 282 282 281 280 279 280 281 281 282 285 285 283 283 284 284 284 283 284 284 284 284 285
299 299 299 294 293 293 293 294 294 294 294 295 295 296 295 294 294 294 294 294 294 294 293 292 292 292 292 291 292 291 291 290 289 289 290 290 289 289 289 289 288 288 287 286 286 286 285 284 284 284 283 283 283 283 282 285 284 283 283 281 281 281 281 281 283 279 279 278 279 279 279 282 284 282 282 282 283 284 284 283 284 284 284 284 285
298 298 298 294 292 292 293 293 294 296 296 295 296 295 294 293 294 294 294 294 294 294 293 293 293 293 292 292 292 290 291 291 290 290 290 289 289 289 289 288 288 287 287 287 286 286 285 285 284 284 283 284 283 282 283 283 282 283 282 282 281 281 282 283 282 280 279 279 279 278 276 278 282 279 280 282 282 283 283 282 284 284 283 283 284
297 298 298 294 291 292 291 291 293 294 294 293 293 294 294 293 293 293 293 294 294 294 294 293 293 291 289 289 289 288 288 289 288 287 288 288 288 288 288 288 288 288 287 287 286 286 285 285 284 283 283 284 283 283 283 283 282 282 281 282 283 281 279 281 282 280 279 278 277 278 276 278 277 277 278 281 281 282 281 282 283 283 283 283 284
298 298 298 296 290 290 292 292 292 293 294 294 294 294 294 293 293 293 293 293 293 294 293 292 291 289 288 288 287 286 287 286 286 285 287 288 288 287 288 288 288 288 287 286 286 285 285 284 284 283 283 283 283 283 283 283 282 282 282 282 280 281 279 278 281 281 281 280 278 277 276 277 276 276 277 277 278 280 280 281 283 282 281 283 282
297 297 297 297 294 290 289 289 291 292 293 294 294 294 293 293 292 292 293 293 293 293 293 292 291 290 288 288 287 287 286 285 286 287 286 287 288 288 287 288 287 287 287 286 286 286 284 284 283 283 283 283 283 283 282 281 281 282 282 282 280 280 281 279 279 282 281 282 279 277 278 276 275 276 277 275 278 280 279 280 281 281 280 281 281
295 295 296 296 295 290 289 290 291 292 293 293 292 292 292 292 292 292 292 292 293 292 292 292 291 290 290 290 290 289 289 288 289 288 288 288 288 287 287 287 287 287 286 286 286 286 284 284 284 283 283 283 283 282 281 282 282 282 282 281 281 282 281 279 280 279 279 280 280 280 282 281 279 277 275 276 274 277 277 279 278 279 280 280 280
295 295 295 295 292 292 293 291 291 293 293 291 292 292 291 291 291 291 292 292 292 292 292 292 291 290 290 290 290 290 290 290 289 288 288 288 287 287 287 287 287 287 286 286 286 285 285 284 283 283 283 283 283 282 282 281 282 282 282 281 281 282 281 281 280 279 279 279 280 280 280 279 278 278 278 277 276 274 276 278 278 279 279 279 280
294 295 295 294 291 291 291 291 292 291 290 291 292 291 291 291 291 291 291 291 291 291 291 291 292 291 290 290 290 291 290 289 287 288 287 287 287 286 286 286 286 286 286 285 285 285 285 284 283 283 283 282 283 282 281 281 282 281 281 281 281 281 280 280 281 280 279 280 279 278 278 277 277 277 278 278 277 275 275 275 275 278 279 280 279
295 294 294 294 291 290 290 290 288 290 290 290 289 289 289 289 290 290 290 291 291 291 291 291 291 291 290 290 290 290 289 286 286 286 286 286 286 286 286 285 285 285 285 285 284 284 284 284 283 283 283 282 283 282 281 281 281 281 281 281 281 280 280 280 280 280 279 280 280 279 278 277 276 276 276 276 276 276 275 275 275 275 275 277 278
296 294 290 289 287 287 287 288 287 286 286 288 289 289 289 289 289 289 290 290 290 290 290 290 290 290 290 290 290 289 288 286 285 285 285 285 286 285 285 285 285 285 285 284 284 284 284 283 283 282 282 283 283 281 281 282 281 281 281 281 281 281 280 280 282 280 279 280 279 279 279 279 277 276 276 276 276 275 274 275 276 276 275 275 277
294 292 290 287 287 287 285 286 285 285 285 287 287 288 288 289 289 289 288 289 289 290 290 290 290 290 290 290 290 290 288 287 286 286 285 285 286 285 285 285 284 285 284 284 283 283 283 283 283 282 282 282 282 282 281 281 281 281 280 280 280 280 280 281 280 279 279 279 279 279 278 278 278 277 277 277 277 276 276 275 275 275 276 276 278
289 290 290 288 286 286 285 285 284 284 287 287 287 288 288 288 288 288 288 288 288 289 289 289 289 290 290 290 290 290 289 288 287 287 286 286 286 285 284 284 284 283 283 283 283 283 283 282 282 282 282 282 282 281 281 281 281 280 280 280 280 279 280 280 280 280 280 279 279 279 278 278 278 278 278 277 277 277 276 274 275 275 274 275 276
288 288 287 288 287 286 286 286 285 285 285 287 287 287 288 288 288 288 288 288 288 288 288 288 289 289 289 289 289 289 288 288 287 287 287 286 286 286 285 285 284 284 284 284 284 283 283 283 283 282 282 282 282 281 281 281 281 281 280 280 280 280 279 280 280 279 279 279 279 278 278 278 277 278 277 277 276 276 274 274 274 274 274 274 276
285 286 288 288 288 286 287 286 286 285 285 285 286 287 287 288 288 287 287 287 287 287 288 288 289 288 288 288 288 288 288 288 288 288 287 286 286 286 286 285 285 285 285 284 284 283 283 283 282 282 281 281 281 281 281 281 281 280 280 280 279 279 279 279 278 278 278 277 277 277 277 277 277 277 277 277 277 277 276 275 274 272 273 274 273
287 287 288 288 287 286 286 286 286 285 285 285 285 286 287 288 288 288 288 287 287 287 287 288 288 287 287 287 287 287 287 287 287 287 287 286 285 285 285 285 285 285 285 284 284 283 283 282 282 281 281 281 281 281 280 280 280 280 279 279 278 279 278 278 278 278 278 277 277 277 277 277 277 277 277 277 277 277 276 276 275 274 272 270 273
289 289 289 288 285 285 286 285 285 284 284 285 286 287 287 287 287 287 287 287 287 287 287 287 287 286 287 287 287 286 286 286 287 286 285 284 285 285 285 285 284 284 284 284 283 283 283 282 282 281 281 281 280 280 280 280 280 279 279 278 278 278 278 278 277 277 277 277 277 277 277 277 276 277 277 277 277 276 276 276 276 275 275 272 271
287 285 286 286 286 286 285 285 285 285 285 284 285 285 285 286 287 287 286 286 287 287 286 287 287 287 287 287 287 287 287 287 286 286 285 284 284 284 284 283 284 284 284 284 283 282 282 282 281 281 280 280 280 280 280 279 279 279 278 278 278 278 277 277 277 277 277 277 277 277 277 276 277 276 276 277 276 276 276 276 275 275 276 273 273
285 286 286 287 286 286 285 284 283 284 285 284 284 284 284 284 284 285 286 287 286 286 286 286 286 288 288 287 287 287 287 287 287 286 284 284 284 284 284 284 283 283 283 282 282 282 281 281 281 280 280 280 280 279 279 279 279 278 278 277 277 277 277 276 276 277 276 277 276 276 276 276 276 276 275 276 276 276 275 275 275 275 275 274 273
285 286 286 287 286 285 285 284 284 284 284 284 284 283 284 284 284 284 284 284 284 285 286 286 286 287 287 287 287 287 287 287 286 285 284 284 284 284 283 283 283 283 282 282 282 282 281 281 280 280 279 279 279 279 279 278 278 278 277 277 276 277 276 276 275 276 276 276 275 275 275 275 275 275 275 275 275 275 275 275 274 274 274 274 274
287 286 287 287 287 286 285 284 283 283 283 283 284 285 285 284 285 285 285 285 285 286 285 286 286 286 286 286 287 286 286 286 286 285 285 284 284 284 283 283 282 282 282 282 282 281 281 281 280 280 279 279 279 278 278 278 278 277 276 276 276 276 276 275 275 275 275 275 275 274 274 274 275 274 274 274 274 274 274 274 274 273 272 273 272
285 287 287 289 288 288 287 285 284 284 284 284 285 285 284 285 286 286 285 286 286 286 286 287 287 287 286 286 286 286 286 286 285 285 284 284 283 283 283 282 282 282 282 282 281 281 281 281 280 279 279 279 279 278 278 278 277 276 276 276 276 276 275 274 274 274 274 274 274 273 273 273 273 273 273 273 273 273 272 272 272 272 271 271 272
293 291 289 288 287 287 287 287 287 287 286 286 285 285 286 286 286 286 286 286 287 287 287 287 286 286 286 286 286 285 285 285 284 284 284 284 283 283 282 282 282 281 281 282 281 281 281 280 280 279 279 279 278 278 278 277 277 276 276 276 276 276 275 274 274 274 274 274 273 273 272 272 272 271 271 272 272 271 272 271 271 271 270 271 271
296 297 296 292 290 290 289 290 288 287 287 287 286 286 286 286 286 285 285 286 286 286 286 286 286 286 286 285 285 285 284 284 284 285 284 284 284 282 282 282 281 281 280 281 281 281 280 280 279 279 279 278 278 278 277 277 277 277 276 276 276 276 275 275 274 274 273 273 273 272 271 271 271 270 270 270 270 271 270 270 270 270 270 270 270
293 293 291 290 290 290 291 291 290 289 288 288 287 287 286 285 285 285 286 286 286 286 286 286 286 286 285 285 285 285 284 284 284 285 284 284 283 282 281 281 281 281 281 280 280 280 280 280 279 279 278 278 278 277 277 277 277 277 277 276 276 275 275 274 274 274 275 273 272 272 271 271 270 269 269 269 269 269 269 269 269 270 270 270 270
288 288 288 288 288 288 288 289 289 289 289 289 288 287 286 285 284 285 285 285 286 286 286 286 286 286 286 285 285 285 284 284 284 284 284 284 284 282 281 281 281 281 280 280 280 280 280 279 279 279 278 278 278 277 277 277 277 276 276 276 275 275 275 274 273 273 273 273 272 271 270 270 270 269 269 268 268 268 268 268 268 269 270 270 270
286 286 287 287 288 287 288 288 289 289 288 288 288 287 286 285 285 285 285 285 285 285 286 286 286 286 286 285 285 285 285 285 285 285 285 284 283 282 281 281 281 281 280 280 280 280 280 280 279 279 278 278 277 277 277 276 276 276 275 275 274 274 274 273 273 273 272 272 271 271 270 270 270 269 269 268 268 268 268 268 268 268 269 269 269
287 287 286 286 286 287 287 287 287 288 288 289 288 288 287 287 287 287 285 285 286 284 285 285 285 285 285 286 285 285 285 285 285 284 284 283 283 282 281 281 280 280 280 280 279 279 279 279 279 279 278 278 277 277 276 276 276 275 275 274 274 273 273 272 272 272 271 271 271 270 270 270 269 269 269 269 269 268 268 268 269 269 269 270 270
285 286 286 286 286 286 286 287 287 288 288 288 289 290 290 290 290 290 289 287 285 283 284 284 285 285 286 286 286 285 285 285 284 283 283 283 282 282 281 280 280 280 280 280 279 279 278 278 278 278 277 277 277 276 276 276 275 275 275 274 273 273 272 272 271 271 271 271 271 271 270 269 270 272 273 272 272 271 269 268 269 270 270 270 270
285 285 285 286 286 286 286 286 287 287 287 288 288 289 290 290 290 291 290 289 283 284 284 284 284 285 286 286 285 285 284 284 283 283 283 282 282 281 280 279 279 279 279 279 278 278 278 278 277 277 277 277 277 277 278 280 279 275 274 274 273 272 272 271 271 271 270 271 271 270 270 273 274 274 274 275 275 275 274 272 271 272 271 271 270
284 285 285 285 285 285 285 286 286 286 287 287 288 288 289 289 290 290 290 290 285 285 284 284 284 285 285 285 284 284 283 283 283 283 282 281 281 279 279 279 278 278 278 278 278 278 277 278 277 277 276 276 276 277 280 282 282 280 275 273 272 272 271 272 271 271 270 270 270 270 270 273 274 275 274 276 276 277 277 277 276 276 275 273 271
283 284 284 284 285 285 285 285 285 286 286 287 287 287 288 288 289 289 289 290 287 285 284 284 285 285 284 284 284 283 282 283 282 282 281 281 280 278 278 278 277 277 277 277 277 277 277 277 277 277 276 276 276 279 282 283 283 282 278 273 273 272 271 271 271 271 270 270 270 270 270 272 273 273 274 275 276 278 278 279 279 279 279 279 279
283 283 284 284 284 284 284 285 285 286 286 286 286 286 287 287 287 287 288 288 287 285 284 284 284 284 284 283 282 282 282 281 281 281 280 279 279 278 278 277 277 278 277 277 277 277 277 277 277 276 276 276 276 280 282 283 283 282 280 276 273 272 272 271 271 271 270 270 271 271 271 272 273 276 275 274 273 274 277 278 278 278 278 279 279
283 283 284 284 285 285 285 285 285 285 285 286 286 286 286 286 286 286 287 287 286 285 283 283 284 283 283 282 282 282 282 282 281 280 279 279 278 278 279 278 278 277 277 277 277 277 277 276 276 276 276 276 276 280 283 283 283 283 281 277 272 272 272 271 271 271 271 271 271 271 271 272 273 274 274 273 273 271 271 272 273 273 273 275 277
283 283 284 284 284 285 285 285 285 285 286 286 286 286 285 285 285 285 286 285 285 283 283 283 282 282 282 282 282 282 282 281 280 279 278 278 278 278 278 278 278 277 277 277 276 276 276 276 276 276 276 275 275 280 283 284 284 283 282 277 272 272 271 271 271 272 272 272 273 273 273 273 273 273 273 273 272 271 270 269 270 271 273 274 274
284 284 284 285 285 284 284 285 285 286 286 286 285 285 283 283 284 285 284 284 283 283 283 282 281 281 280 281 281 281 281 280 279 278 278 278 278 278 278 278 277 277 277 277 277 277 276 276 276 276 275 275 275 281 283 284 284 284 282 273 271 271 271 271 271 272 273 273 274 273 273 273 272 272 274 276 275 272 272 271 271 272 273 274 275
284 284 284 285 286 286 285 285 286 286 286 286 286 285 283 283 284 284 283 283 282 282 283 282 281 281 280 280 280 280 280 279 278 278 277 278 278 277 278 278 277 277 276 276 276 276 276 276 275 274 274 274 274 279 283 284 284 284 281 271 271 271 271 271 272 273 273 274 273 273 273 272 272 271 274 277 277 276 273 272 272 272 272 270 272
284 284 285 285 286 286 286 286 286 286 286 286 286 285 283 283 283 283 282 282 283 283 282 280 280 281 280 280 280 280 280 279 278 278 278 278 277 277 277 277 276 276 275 276 276 275 275 275 275 274 274 273 273 278 283 284 284 284 278 271 271 272 272 272 272 273 273 272 273 275 274 272 271 272 275 277 278 277 275 274 273 271 271 272 273
283 283 283 284 285 285 285 285 285 284 285 286 286 285 284 283 283 283 282 283 284 283 281 279 280 279 278 278 278 278 279 279 278 278 278 277 277 277 277 276 276 276 275 275 275 274 273 273 274 274 276 274 273 277 283 284 284 284 278 273 272 272 272 272 272 272 272 272 272 275 275 273 273 273 276 278 279 278 275 274 273 273 272 272 273
282 283 283 284 284 284 283 283 283 283 284 285 285 285 284 284 284 284 284 284 284 282 279 278 278 278 277 277 278 279 279 279 278 277 277 277 276 275 274 275 274 275 274 274 274 273 273 273 273 273 274 274 272 274 280 284 284 284 280 274 273 273 272 272 272 271 270 271 271 273 275 277 276 277 278 279 279 279 275 275 274 273 271 271 274
281 281 283 282 282 282 281 281 282 282 283 284 284 284 283 283 284 284 284 285 284 282 279 278 278 277 276 276 276 278 278 277 276 275 274 274 274 274 273 273 273 272 272 271 272 272 272 272 272 273 273 273 272 273 277 283 284 285 282 278 273 273 272 272 271 271 270 270 271 271 272 277 279 278 279 279 278 278 277 275 275 273 273 273 274
281 281 281 281 280 279 279 279 280 280 281 282 282 281 281 282 282 283 284 286 284 282 280 279 279 278 277 276 276 277 278 276 273 275 275 274 273 274 273 273 272 271 271 270 271 270 270 270 271 272 272 272 273 275 276 282 284 285 283 280 274 273 273 272 271 270 270 270 271 272 272 275 279 279 279 277 277 277 278 276 274 276 276 276 274
277 278 279 279 277 277 277 277 277 278 279 280 280 278 279 280 280 282 285 285 285 283 281 280 279 278 277 276 276 277 277 275 275 276 276 274 273 273 273 273 272 270 270 269 270 270 270 269 269 270 271 271 271 274 278 279 283 284 284 281 278 276 277 273 271 270 270 271 272 273 273 277 278 277 277 277 277 277 277 275 275 275 275 275 272
276 277 278 277 275 275 275 275 275 276 277 278 277 276 277 277 279 282 284 285 285 285 282 280 279 279 277 276 276 276 276 276 275 275 275 274 272 272 272 272 271 270 269 269 269 269 269 269 268 268 269 269 270 272 277 280 281 284 284 281 280 279 278 273 272 271 272 272 272 272 274 277 277 276 276 276 277 276 274 274 274 274 274 271 264
274 275 276 275 274 273 273 273 274 275 275 275 276 275 275 275 278 281 283 284 283 283 282 281 280 280 278 277 276 276 276 275 275 276 275 273 272 272 271 271 271 270 270 269 268 269 269 269 267 267 267 268 269 271 273 278 281 283 284 282 280 279 279 277 273 272 273 273 274 275 276 276 276 275 276 276 273 272 273 272 272 272 270 263 260
273 273 273 272 272 271 271 271 272 273 273 273 273 274 273 274 276 279 281 280 278 278 278 279 280 280 279 278 276 276 276 275 275 276 275 274 273 272 272 271 271 271 270 270 269 269 269 269 267 267 267 267 269 270 272 275 279 281 282 281 280 279 279 277 275 274 275 276 277 276 276 276 276 274 270 268 266 267 270 271 270 268 262 259 258
271 271 271 269 269 269 269 269 269 270 271 271 272 272 273 274 275 277 277 276 274 274 275 276 278 280 280 278 276 276 275 275 275 275 275 274 273 273 272 271 271 271 271 270 270 269 269 269 267 267 267 267 268 269 271 273 276 278 279 279 278 277 278 277 274 274 275 274 275 275 274 274 271 272 270 270 269 267 264 263 261 261 260 258 258
270 270 268 267 267 266 266 267 267 268 269 269 270 270 272 274 274 274 272 271 271 272 273 274 275 278 279 278 276 275 274 275 274 274 274 274 273 273 272 272 271 271 271 270 270 269 269 269 267 267 267 267 267 268 270 272 274 276 277 278 276 276 276 274 272 273 272 272 272 272 271 267 266 264 263 260 260 260 260 260 259 259 259 259 262
268 268 267 266 266 265 265 265 266 267 267 267 268 270 271 270 269 269 269 268 269 271 272 272 274 275 277 277 276 276 275 275 274 273 274 274 273 272 273 273 274 273 273 272 271 271 271 271 269 268 267 266 267 268 269 274 274 278 277 276 275 275 274 272 273 272 267 266 265 263 262 262 261 260 259 258 256 255 257 258 256 255 256 256 256
267 267 266 265 265 265 264 264 264 265 265 265 266 266 266 266 267 267 267 267 268 269 270 271 273 274 276 277 275 275 275 274 274 273 273 273 274 276 275 273 273 275 276 276 276 272 272 272 270 270 270 268 267 269 274 277 278 279 280 279 278 278 275 272 274 274 269 264 263 262 262 261 260 259 258 258 257 256 255 256 256 260 259 257 257
266 265 264 264 264 264 263 263 263 263 263 263 263 263 263 264 265 265 265 265 266 267 269 270 272 273 275 276 276 275 274 274 274 273 273 272 271 273 277 277 276 275 276 277 277 277 276 276 272 270 272 274 273 274 276 277 279 279 280 280 279 277 276 276 276 270 266 263 262 261 260 259 259 259 258 257 257 256 256 256 256 257 257 258 258
Wind_Speed
22 14 9 8 8 9 9 9 10 10 10 12 14 14 16 17 15 16 14 14 14 13 13 13 13 10 8 12 13 12 11 10 9 9 9 10 10 10 10 9 9 9 8 9 9 8 7 6 6 5 5 6 6 7 5 6 4 5 6 3 4 3 3 3 1 3 4 3 3 5 5 3 2 1 3 4 6 5 5 6 5 6 6 6 6
15 16 16 6 6 6 6 7 7 9 10 11 15 17 16 13 16 15 12 14 16 16 15 14 15 17 17 16 14 13 12 12 13 11 11 9 9 10 9 9 9 9 9 9 8 9 9 8 7 8 7 6 5 4 4 4 5 5 5 5 2 3 2 2 2 2 5 2 2 6 6 4 3 4 3 1 4 4 5 5 4 6 6 5 6
17 17 16 5 6 6 7 8 10 13 13 15 16 13 12 14 14 12 13 15 15 14 13 15 13 10 11 8 11 8 7 7 6 7 7 9 9 9 9 9 10 9 10 10 9 9 9 8 8 7 7 6 6 6 6 6 5 6 5 7 4 2 3 1 4 2 4 3 2 2 3 4 3 5 3 1 3 1 4 3 3 5 5 4 3
18 19 16 5 7 6 5 6 8 7 8 8 9 14 12 13 13 14 14 14 13 14 14 11 9 6 3 4 4 4 5 5 5 6 6 6 9 9 9 10 11 11 11 10 8 9 9 9 7 7 7 6 6 7 7 6 6 5 4 4 7 4 1 1 3 3 3 5 2 2 0 1 1 2 5 6 4 3 3 2 3 4 4 5 5
19 18 16 9 3 6 9 9 6 9 10 11 12 13 12 16 15 15 14 15 13 13 13 10 9 8 6 7 6 6 6 5 5 6 10 10 8 9 12 10 11 11 10 11 10 10 9 8 8 7 7 7 6 7 8 8 7 6 6 6 5 7 4 2 1 2 1 1 6 4 2 1 2 1 3 6 2 1 1 1 4 3 3 3 4
17 18 17 14 7 5 5 5 8 8 10 10 10 11 10 11 11 12 11 12 13 15 15 13 13 14 12 11 10 8 7 8 12 17 14 14 16 9 7 11 11 11 11 12 11 10 10 9 8 8 8 7 7 7 5 5 5 6 7 6 4 2 6 5 2 1 2 3 2 1 2 2 5 3 2 2 4 1 2 1 1 1 1 2 2
10 11 14 14 10 5 6 8 9 10 12 7 7 10 10 11 13 14 14 12 12 13 15 13 13 13 16 17 16 17 16 14 13 8 10 9 7 11 11 10 12 13 12 12 12 11 10 10 10 10 9 8 6 7 7 8 7 6 4 5 5 5 6 5 7 4 2 2 2 3 5 4 5 6 4 2 4 5 3 1 2 0 1 1 3
12 13 14 13 7 7 10 10 10 14 10 8 9 9 12 14 14 15 12 13 13 14 15 15 15 15 15 14 13 14 15 15 12 10 8 8 10 10 9 10 10 10 11 10 11 11 11 10 10 10 10 9 8 8 9 7 6 4 5 5 5 6 6 9 7 7 7 3 1 3 4 4 3 3 4 6 3 2 6 2 3 4 3 4 3
10 14 16 11 6 8 7 8 11 8 6 10 11 11 10 10 12 12 13 13 13 16 16 16 15 16 16 15 14 13 13 8 7 7 9 9 10 8 9 9 9 9 9 10 10 10 10 11 10 10 10 9 8 7 7 8 9 9 8 7 7 6 5 5 8 9 6 8 7 2 4 3 3 2 4 3 4 4 5 4 2 3 5 7 5
12 14 11 10 6 6 7 6 3 6 6 5 5 6 7 8 11 13 13 12 13 16 16 17 16 14 14 14 16 13 9 6 8 9 9 10 12 11 10 10 10 10 9 9 10 10 10 10 10 11 10 10 9 9 8 8 8 8 8 8 8 7 5 7 8 7 6 6 7 8 6 4 3 2 2 3 1 3 5 3 1 2 7 2 2
12 7 3 5 4 4 2 5 4 2 4 6 7 8 8 10 12 14 14 11 12 15 16 18 15 15 16 16 18 15 13 11 11 11 10 10 13 13 12 11 10 11 9 9 10 10 10 10 10 10 9 10 10 10 10 10 9 9 7 7 7 9 7 7 5 6 6 7 7 8 9 10 9 7 7 5 4 3 2 4 2 3 4 11 1
7 10 9 5 4 2 1 5 4 5 5 6 6 7 9 9 10 12 10 12 11 13 14 16 15 16 15 16 17 16 15 13 16 15 15 15 14 13 10 8 10 9 9 9 10 10 10 9 9 9 10 9 10 9 9 9 9 8 8 8 8 7 7 8 8 9 8 7 7 6 6 5 5 6 6 6 6 4 3 6 6 2 5 7 3
6 6 8 7 4 4 4 4 2 5 7 7 9 8 9 9 11 14 13 12 12 12 15 15 14 15 16 16 15 12 13 14 14 13 12 13 12 11 12 13 10 10 12 12 12 13 11 10 11 11 10 10 9 9 9 10 10 9 9 9 9 10 10 10 9 10 10 10 9 6 6 5 5 5 6 6 5 5 4 2 2 3 4 9 3
5 5 4 4 4 4 5 5 5 4 5 7 8 9 9 10 12 15 15 13 12 13 15 16 18 17 14 13 12 11 12 12 11 12 12 11 11 13 14 14 13 15 13 14 12 12 11 11 11 10 9 9 9 10 10 10 10 10 10 10 11 9 8 9 8 8 7 5 5 7 5 6 5 6 6 7 6 6 4 4 2 3 2 9 8
5 6 6 5 5 5 7 7 6 5 5 5 6 7 8 10 12 14 12 13 13 14 13 16 16 14 12 11 11 10 12 11 12 10 10 11 11 12 12 10 12 12 13 11 10 13 12 11 11 11 9 9 9 9 9 9 9 8 8 9 8 7 8 8 7 8 8 7 6 6 6 6 6 6 7 6 6 6 6 5 5 1 4 3 4
6 7 8 10 7 5 5 6 7 7 7 7 7 8 10 12 12 14 16 16 15 14 15 15 13 10 9 11 13 11 9 9 9 9 10 11 11 12 12 12 11 9 9 10 11 12 12 12 11 11 10 10 9 9 9 9 9 9 8 8 9 6 8 9 7 7 7 7 7 6 7 6 6 7 6 7 6 6 6 6 6 6 5 3 4
9 7 7 8 5 5 6 6 5 4 6 9 10 11 12 11 11 13 11 10 14 16 16 12 11 10 14 13 11 12 14 14 14 12 10 8 8 10 10 11 8 9 10 10 11 11 11 12 11 11 11 10 10 10 10 9 9 9 9 9 9 7 8 8 7 7 7 7 7 8 7 7 7 6 6 6 6 6 6 6 6 7 7 4 1
8 8 9 9 7 7 6 5 6 6 6 5 7 6 5 6 8 12 11 14 14 13 12 12 13 13 12 14 15 16 15 14 12 12 10 9 10 10 9 9 13 10 10 9 11 12 12 12 11 11 10 10 11 10 10 9 9 8 8 8 7 7 7 6 7 7 8 7 6 6 6 6 6 6 6 6 6 6 6 6 6 6 6 7 6
8 7 7 7 5 5 4 4 3 4 6 7 5 5 5 6 5 6 10 11 8 7 8 8 10 11 12 14 15 13 12 13 12 11 10 13 14 13 13 12 8 10 11 11 12 12 12 12 11 11 10 11 10 10 9 9 9 8 8 8 7 8 8 8 7 7 7 7 7 7 6 6 6 6 6 6 5 6 6 6 5 6 6 6 6
8 9 8 9 8 5 1 2 4 5 5 5 6 6 8 7 6 7 6 6 6 8 10 12 14 12 12 11 12 14 14 14 13 12 12 14 14 12 12 10 13 10 10 12 12 13 14 13 12 12 11 11 11 10 10 10 9 8 8 8 8 9 9 9 8 6 6 7 8 8 7 7 6 6 6 6 6 5 5 5 5 5 5 5 4
6 6 8 8 7 5 4 1 3 4 4 5 5 8 7 7 10 11 13 12 11 13 11 14 12 14 15 16 17 15 16 13 11 12 13 13 11 12 12 12 8 12 12 13 13 14 14 14 13 13 13 13 12 12 10 10 10 9 8 8 8 9 10 8 8 8 6 7 8 8 7 7 7 7 6 6 6 5 5 5 4 5 5 4 5
6 7 7 8 7 7 6 3 1 4 6 7 8 6 8 11 14 12 11 12 15 14 16 17 14 13 14 16 15 12 12 10 12 12 13 12 11 12 11 10 13 12 13 14 14 13 13 14 14 13 13 13 13 13 12 11 12 11 10 8 9 10 10 9 9 9 8 7 7 8 7 7 6 7 7 6 6 6 5 5 4 5 4 4 3
17 12 8 6 5 5 5 5 5 6 7 6 7 9 12 13 12 11 13 16 15 15 13 10 9 12 14 14 12 11 10 11 13 12 14 14 13 11 10 13 13 12 12 13 14 14 14 14 13 13 13 13 13 13 12 12 12 13 13 11 11 11 12 12 12 11 10 8 9 8 8 7 6 7 6 6 6 6 5 5 4 4 4 3 3
20 22 21 16 11 9 8 9 8 7 8 10 9 9 9 9 10 9 13 17 12 11 10 10 12 13 14 12 13 13 12 14 14 14 16 15 13 11 11 13 13 11 13 12 13 14 14 14 15 14 15 14 14 13 13 13 14 14 13 13 12 12 11 11 12 11 11 11 11 10 9 9 7 8 7 6 6 6 5 5 5 4 4 4 3
14 13 12 12 11 11 11 10 10 9 7 7 8 9 9 10 8 11 14 13 9 9 9 12 13 15 14 14 15 14 14 15 16 15 18 16 14 13 12 14 13 14 14 13 12 13 14 15 16 17 16 15 15 14 14 14 13 12 13 12 13 12 12 11 11 11 11 12 11 11 10 9 9 9 7 7 6 7 5 5 5 4 4 4 4
10 12 12 13 12 12 13 13 13 12 11 9 7 7 8 8 9 9 10 10 10 8 9 11 12 14 15 16 16 14 16 17 18 17 18 16 15 14 13 12 14 15 14 14 15 14 15 17 16 16 16 16 15 15 16 15 15 13 12 12 11 12 11 11 10 10 11 10 10 10 10 10 10 10 8 7 7 8 6 6 6 5 4 4 5
10 11 12 13 16 16 14 14 14 13 13 12 11 10 8 8 10 9 9 9 9 8 10 12 13 14 15 15 15 16 17 17 18 17 14 12 13 13 13 13 13 14 14 14 14 16 14 16 16 15 16 16 16 15 14 13 13 13 13 13 12 11 11 10 10 10 9 9 8 8 9 10 10 8 9 9 8 8 7 6 6 5 5 5 5
12 14 15 13 13 14 15 15 15 15 14 14 12 11 11 10 12 10 8 8 8 8 10 12 13 14 15 16 15 15 15 16 14 11 11 12 11 11 13 12 11 13 15 16 16 16 14 13 14 15 15 14 15 14 14 14 13 14 13 13 13 12 12 10 9 9 8 8 9 8 8 9 8 7 8 8 8 8 6 6 5 5 5 6 6
14 13 13 13 13 12 14 15 15 16 18 17 16 16 16 15 14 14 12 10 7 6 10 12 12 14 16 15 13 12 13 12 10 10 12 13 13 14 12 12 13 13 12 13 12 13 13 13 12 13 14 13 15 15 14 15 15 14 13 14 14 13 12 12 10 9 8 7 7 7 7 7 7 9 12 10 9 8 6 6 6 7 7 6 6
14 14 13 13 13 13 13 14 16 17 18 19 18 18 18 18 18 18 17 15 5 9 11 11 12 14 14 12 12 11 10 9 10 13 14 13 12 12 12 13 13 13 12 11 12 13 14 15 15 14 13 13 14 12 15 24 20 16 15 12 11 12 12 11 11 9 7 8 8 6 7 12 14 14 13 13 13 14 13 9 7 7 7 6 6
13 14 14 13 14 13 13 14 15 15 15 14 14 15 15 16 17 17 17 15 8 11 11 11 14 14 13 10 9 11 9 11 13 11 10 11 12 11 12 12 11 12 13 13 13 15 15 14 16 16 17 14 13 11 21 25 25 23 16 13 14 12 11 11 8 8 9 9 8 7 6 10 12 12 10 14 13 15 15 16 15 14 10 8 6
12 12 13 14 14 14 14 14 14 13 14 13 14 14 13 15 15 16 17 16 12 10 11 13 14 13 10 11 11 10 10 12 10 13 12 11 10 11 12 12 12 13 13 12 14 15 14 14 14 14 16 15 14 16 25 25 25 25 19 13 11 11 11 11 8 8 8 8 9 8 7 6 7 8 8 9 12 14 15 14 15 14 15 15 14
12 12 13 13 13 12 12 12 12 12 13 13 12 13 14 14 15 15 15 15 14 12 12 13 13 11 11 10 8 10 11 11 12 12 10 10 12 13 13 13 16 14 11 13 16 15 15 14 15 16 16 14 13 19 25 26 25 25 24 16 10 11 12 11 9 10 10 10 9 9 8 7 6 15 10 7 4 5 10 13 13 14 14 15 15
11 11 11 11 12 12 11 11 10 11 10 10 9 10 13 13 13 13 13 14 14 13 10 12 11 9 9 8 8 9 11 11 9 9 10 11 13 15 14 12 11 11 14 14 14 16 15 16 16 16 15 13 13 18 24 25 25 25 25 18 10 12 11 11 10 10 9 10 11 10 10 9 8 9 8 8 7 5 4 5 6 5 4 9 13
14 14 13 13 13 12 12 12 11 12 12 13 14 13 14 15 14 14 13 13 13 12 11 9 9 8 6 7 7 8 10 8 7 9 10 12 13 11 12 13 13 15 16 16 16 16 15 14 12 11 11 12 11 21 25 26 25 26 25 17 10 10 9 10 8 9 11 11 11 10 10 10 11 8 7 9 7 6 5 5 6 7 7 8 8
14 16 16 15 14 13 12 12 11 11 12 10 11 11 13 16 14 12 13 12 11 12 12 11 10 8 6 5 5 7 6 5 7 8 10 12 12 13 14 12 11 10 9 9 9 10 13 13 13 13 13 12 10 22 24 25 26 25 25 12 11 11 11 10 10 11 10 10 10 9 9 8 8 7 12 16 12 8 7 9 9 9 8 7 6
13 13 14 14 11 11 11 9 11 12 13 12 12 11 12 13 13 12 11 12 11 12 12 10 9 8 6 4 4 5 5 5 6 8 11 11 11 10 9 7 10 10 10 11 11 11 10 11 12 11 12 10 9 18 24 24 26 27 20 11 12 10 10 11 11 11 10 10 7 9 8 7 7 7 12 17 17 16 9 11 10 8 5 3 5
12 12 12 13 12 11 11 11 12 13 12 12 13 12 12 13 13 13 13 13 11 12 11 9 9 8 7 5 5 5 6 6 7 10 10 8 7 6 8 8 11 11 11 11 10 9 9 10 12 12 12 11 11 17 24 25 25 29 18 14 12 12 11 11 10 10 8 8 10 17 12 8 8 8 15 17 17 14 8 8 6 4 5 7 6
12 13 14 13 12 12 12 13 13 14 15 15 16 14 13 13 13 13 12 13 13 13 12 11 10 8 7 5 5 5 5 6 8 8 7 8 8 8 7 7 8 8 9 8 9 10 9 9 11 13 14 14 12 15 25 26 28 29 19 12 12 11 12 11 11 10 8 8 9 13 17 12 11 11 17 17 18 13 6 6 5 6 7 5 4
11 10 10 12 12 13 13 14 15 15 15 16 15 15 15 14 14 12 13 14 13 13 11 9 8 8 7 5 4 5 6 6 7 6 5 6 5 5 7 8 7 7 8 8 9 9 11 10 11 12 13 13 12 12 17 27 27 28 23 13 11 12 13 13 11 11 10 9 9 8 13 18 18 18 17 17 16 16 7 6 7 5 4 6 3
12 11 12 11 11 11 13 14 14 15 16 14 14 15 16 16 15 13 14 15 13 12 10 9 8 7 6 5 4 4 6 5 4 5 4 4 5 6 6 7 8 6 6 7 9 8 9 9 9 9 11 12 13 15 17 28 29 29 26 21 11 12 11 12 12 11 10 11 10 8 6 16 20 18 17 17 15 13 11 7 6 4 3 3 4
10 13 13 12 13 14 15 15 13 14 14 13 14 17 16 16 15 16 15 14 13 12 11 9 9 8 7 5 4 4 3 3 4 5 5 5 4 5 6 7 6 7 9 9 8 7 8 8 7 9 9 10 11 17 14 25 30 31 28 26 13 11 11 12 12 10 10 9 9 9 8 14 20 19 16 14 13 12 12 4 3 7 8 8 7
13 13 12 11 13 15 16 16 15 13 12 12 14 17 17 16 16 17 15 15 14 12 11 10 9 9 8 6 4 4 4 3 4 5 7 6 5 6 6 7 8 7 8 9 9 9 8 8 7 8 8 8 10 11 18 16 27 30 29 25 21 13 20 11 11 12 11 9 8 9 9 17 18 16 13 13 12 11 7 4 5 6 6 8 3
12 11 12 12 14 14 16 17 16 13 12 12 13 16 18 18 18 15 15 15 14 13 12 12 11 9 8 7 5 4 4 4 5 6 6 7 7 7 7 7 7 8 9 9 8 8 9 9 11 10 8 7 5 9 14 17 20 30 28 26 25 23 22 11 9 9 9 10 9 9 11 19 17 14 14 13 11 8 4 5 5 4 5 3 4
15 13 9 9 12 16 18 18 16 15 13 13 12 14 19 22 18 15 15 14 15 16 15 14 13 11 9 7 5 5 5 5 6 7 8 7 8 8 9 7 8 8 9 10 9 10 11 10 11 9 6 5 7 10 9 15 21 24 29 26 25 24 22 20 11 7 9 7 12 17 20 18 15 15 15 11 6 6 5 4 4 4 4 4 2
13 12 12 12 13 14 16 19 21 17 13 13 14 14 18 20 18 16 14 15 17 18 18 18 15 12 11 8 7 6 6 6 7 7 8 8 10 10 10 9 10 10 10 10 10 10 10 10 12 8 7 7 7 7 10 10 15 19 21 25 25 25 23 22 15 11 15 19 20 20 19 17 16 12 7 6 4 3 5 5 2 4 3 1 1
13 12 10 12 13 15 17 18 20 21 15 12 16 13 14 16 17 14 13 15 18 19 19 18 16 14 11 8 9 7 6 7 7 7 7 7 8 9 9 10 11 11 11 10 10 11 11 11 14 9 7 8 8 9 12 11 11 13 13 16 19 18 23 21 13 12 15 13 16 13 10 11 9 12 11 8 7 5 4 2 2 1 2 2 2
11 12 11 11 12 13 15 18 19 18 15 14 15 15 16 14 15 15 17 19 20 19 16 17 17 16 13 9 9 10 10 7 8 9 9 9 9 10 11 13 14 15 14 13 12 12 14 12 9 8 8 6 8 12 13 14 14 13 13 13 13 13 14 12 12 10 9 8 9 11 12 7 7 6 6 4 3 2 2 2 2 2 2 3 4
13 12 11 12 13 15 16 17 19 18 15 16 18 15 16 15 17 18 19 18 19 20 18 19 16 15 15 11 9 9 9 9 9 9 10 10 12 13 13 11 10 8 11 13 13 13 12 10 12 13 12 9 8 13 17 13 13 16 14 13 14 14 11 12 15 18 12 9 9 8 7 7 6 6 4 5 3 2 1 2 2 2 2 1 1
11 9 11 13 14 14 16 18 18 17 16 15 15 15 16 15 14 14 16 18 19 18 18 16 10 13 11 12 8 9 9 9 9 9 9 9 10 13 10 10 9 12 16 13 10 9 8 9 10 11 14 17 20 17 19 27 27 27 27 24 21 20 20 17 22 28 15 10 9 8 7 7 7 6 6 6 5 4 3 2 2 1 0 1 2
13 13 14 14 14 14 14 18 19 16 13 15 17 20 18 14 12 15 15 16 18 17 15 14 12 11 13 12 10 10 9 9 9 9 8 9 8 9 17 19 13 11 14 18 18 16 15 17 12 10 11 14 10 16 25 26 29 29 28 27 24 24 26 27 27 17 11 10 9 9 7 7 6 6 6 6 6 5 4 3 2 2 2 3 4
Wind_Direction
267 274 257 242 228 212 206 199 203 200 196 188 191 193 192 190 180 188 184 173 171 171 175 171 173 172 178 189 193 189 188 185 188 189 187 191 180 180 178 179 173 170 171 167 173 172 174 173 171 180 178 172 173 178 164 156 154 147 134 118 120 96 44 15 40 80 45 14 24 18 353 14 22 60 79 48 35 28 29 24 4 25 21 18 1
273 278 269 234 236 215 204 199 186 189 207 191 193 196 194 182 186 187 172 179 182 181 179 179 183 183 181 189 189 187 182 183 191 190 192 184 180 180 179 176 173 174 171 174 171 173 173 178 181 181 178 178 170 152 155 156 146 140 143 80 30 123 92 348 329 103 30 99 24 334 349 359 28 61 86 21 27 32 31 16 13 31 25 6 5
272 268 272 245 221 213 198 205 203 203 196 194 198 188 185 187 190 178 182 180 186 181 175 186 187 188 188 186 185 179 192 188 179 179 169 179 185 182 177 175 174 176 174 176 174 178 178 175 185 176 179 168 157 165 165 160 161 158 164 135 105 49 96 13 1 51 137 133 137 87 2 13 332 8 346 357 19 33 54 14 30 31 22 11 3
269 271 279 253 205 208 212 216 212 207 202 199 191 191 188 188 184 181 183 183 180 183 184 182 173 156 124 107 125 120 161 150 136 141 168 167 190 183 183 180 178 179 178 177 175 177 176 181 172 175 178 177 170 164 168 170 164 165 152 144 133 112 72 14 358 356 122 123 30 74 157 99 318 349 331 307 35 76 80 40 39 33 14 13 22
270 278 275 268 213 224 212 213 201 208 207 200 192 191 190 190 186 181 177 180 181 178 175 159 138 124 109 89 93 86 75 123 139 176 189 191 178 189 193 180 182 180 177 179 176 179 179 175 173 174 171 180 174 173 177 179 178 171 165 155 158 142 151 132 338 2 359 224 142 109 55 31 214 253 356 292 341 354 50 98 44 28 27 18 25
262 269 272 276 247 229 224 217 210 217 218 211 197 194 183 183 177 175 175 177 179 177 170 162 167 161 154 153 159 171 175 174 191 198 188 190 199 177 171 186 182 182 181 180 182 175 177 174 169 167 176 179 182 179 167 153 171 171 185 167 153 158 136 129 107 328 351 357 37 131 160 173 167 214 112 270 319 277 289 153 147 24 116 73 6
261 258 266 267 256 219 225 214 212 215 223 193 185 186 182 176 177 177 177 178 175 173 170 167 168 175 178 180 179 181 189 205 203 184 186 190 166 181 187 186 189 184 186 183 181 178 173 172 173 176 176 177 172 161 175 183 176 172 159 156 167 145 130 126 153 172 43 360 19 53 70 80 119 123 195 51 327 316 353 284 284 303 197 48 358
260 263 260 256 255 218 231 215 208 217 207 179 187 182 181 178 174 177 176 177 177 173 175 177 176 179 183 187 188 194 198 202 185 186 170 170 184 184 181 190 190 193 185 187 182 179 175 174 174 173 174 178 173 179 180 174 157 156 160 163 152 160 152 143 160 171 155 183 128 93 89 87 99 95 135 162 171 242 303 311 322 305 287 325 284
255 259 262 264 237 230 228 221 222 214 179 188 187 185 179 175 174 173 177 176 176 176 178 183 183 182 185 187 194 204 200 183 162 156 165 169 179 177 183 185 189 194 192 186 186 183 180 178 174 174 176 177 178 174 174 170 172 164 163 161 168 169 156 151 148 178 169 162 147 112 113 112 109 103 153 148 166 180 257 201 261 317 288 275 220
264 250 262 276 254 235 226 241 220 207 194 178 169 157 166 167 174 176 181 180 178 180 182 184 185 183 188 195 197 196 182 157 159 169 169 170 183 184 184 182 187 189 192 190 187 187 182 178 178 180 179 174 176 178 169 171 172 172 173 168 163 162 160 155 167 171 174 166 169 153 142 124 88 77 152 161 212 196 236 225 158 276 319 267 221
265 279 269 286 301 267 243 221 217 174 169 166 167 169 166 172 176 181 186 180 181 184 182 187 188 188 194 194 196 191 184 173 170 179 174 176 189 187 186 188 184 190 184 192 190 184 185 181 181 182 178 178 176 172 178 176 176 171 167 161 165 162 164 158 149 163 159 165 170 172 171 171 170 170 181 183 157 178 270 251 163 165 237 299 218
313 334 330 312 309 296 263 219 185 181 164 175 172 167 170 174 175 181 184 187 184 186 188 191 192 196 199 197 198 196 184 185 189 188 185 187 187 185 182 175 190 187 188 189 191 186 183 184 181 179 183 180 183 179 174 173 168 162 164 170 171 167 159 157 159 162 170 170 178 180 176 166 148 133 156 146 146 176 170 288 311 288 261 207 262
329 313 303 305 284 286 280 270 218 187 190 180 178 174 171 172 178 181 192 189 188 187 193 195 197 202 201 201 203 194 192 194 196 193 188 189 186 182 178 191 180 186 196 193 194 183 182 181 183 185 186 189 180 176 176 169 166 168 170 173 172 172 175 169 169 177 172 175 178 176 160 155 149 133 129 137 134 126 124 327 308 22 305 299 269
296 287 285 281 291 280 265 249 234 234 209 190 180 177 178 179 181 188 192 188 188 192 196 197 204 204 201 201 199 193 200 198 199 198 192 193 186 190 189 189 188 197 188 198 185 180 187 189 185 189 187 181 180 180 176 175 171 171 172 174 180 179 167 173 173 168 172 167 151 154 157 150 143 142 140 134 146 136 147 169 292 339 311 295 314
337 323 299 287 257 227 230 226 223 213 205 203 196 188 178 187 188 191 188 195 193 198 197 205 208 205 203 202 198 198 201 198 203 201 192 191 193 194 195 191 196 196 193 188 173 187 189 183 185 184 183 180 178 179 178 176 176 169 175 177 174 168 171 165 167 163 165 162 154 150 148 143 151 152 143 157 154 161 154 157 149 325 318 245 280
310 300 292 270 257 257 243 230 220 205 192 191 200 196 193 196 193 196 195 190 193 195 205 207 206 201 205 204 206 202 203 202 205 203 201 195 192 192 195 195 198 185 186 175 185 182 186 185 182 186 178 179 181 181 179 178 176 173 173 174 175 170 166 169 164 157 155 154 151 151 143 158 158 157 157 157 159 160 154 154 150 158 161 282 301
286 275 269 281 288 261 236 234 237 229 208 201 198 201 202 191 192 201 203 199 200 202 202 199 201 202 208 207 202 202 203 203 205 203 198 188 187 196 195 197 184 185 184 179 177 183 185 184 183 182 180 179 179 182 180 179 177 177 177 173 175 170 165 166 154 160 161 159 159 163 160 159 164 156 153 152 153 150 156 161 167 168 175 172 225
283 282 276 268 264 254 240 229 213 206 215 225 223 214 220 223 212 201 197 202 208 204 202 199 200 206 209 210 209 207 206 208 203 198 190 181 192 195 192 185 196 184 173 178 176 180 184 183 183 182 181 179 183 178 179 177 174 181 179 180 170 157 154 151 164 160 165 162 161 159 159 157 160 153 155 153 150 154 155 163 168 173 173 186 191
294 287 288 288 287 303 291 279 283 255 219 203 205 208 221 224 235 228 219 221 219 212 208 209 207 212 211 211 209 213 214 212 207 195 184 192 196 196 194 196 173 176 177 173 177 179 182 185 183 182 179 182 178 180 175 175 177 175 176 172 163 163 162 167 169 163 166 161 162 163 163 161 162 155 147 145 145 146 153 155 166 163 188 180 194
296 308 318 313 290 264 259 270 262 248 260 244 196 184 207 210 213 224 232 225 215 214 211 214 212 211 216 213 215 212 211 211 208 198 197 201 201 194 192 185 191 174 179 176 178 182 182 182 184 181 180 180 179 178 176 175 176 181 174 172 171 166 166 169 167 166 161 166 164 169 175 168 164 149 150 148 146 144 142 150 155 160 177 180 174
302 301 297 297 318 346 16 17 250 259 226 231 235 211 205 203 214 209 210 206 209 212 206 220 212 217 214 211 213 209 212 208 206 207 208 207 200 195 194 192 161 184 178 180 182 184 181 182 181 183 182 182 179 177 178 174 179 178 178 173 168 171 167 168 161 167 170 169 174 172 174 171 161 156 154 148 146 146 142 150 158 165 187 193 182
267 270 275 305 310 326 354 349 291 248 247 228 217 209 211 212 216 213 211 213 211 210 208 216 211 219 216 221 219 216 214 203 206 206 210 209 205 200 191 173 187 186 179 183 183 181 182 180 181 184 184 184 183 180 176 176 179 176 176 174 175 173 170 168 166 174 175 176 172 169 173 169 168 156 153 155 149 150 159 161 178 176 202 194 195
302 296 290 284 303 309 307 296 275 254 255 246 230 221 221 220 218 214 212 224 216 218 217 217 214 219 222 223 219 214 206 207 210 209 210 208 206 199 184 188 188 182 184 183 183 180 178 179 181 183 184 185 185 181 179 178 181 179 178 179 180 177 175 173 177 181 177 170 169 175 176 168 162 155 158 154 151 158 157 169 181 183 189 200 196
304 311 315 332 335 326 313 303 290 265 250 242 237 236 237 235 228 225 225 230 220 221 213 212 218 223 224 219 217 215 205 207 207 211 211 209 202 197 189 191 186 179 183 186 181 179 176 179 182 183 186 185 183 184 181 183 182 180 180 181 179 182 182 182 180 176 175 176 177 171 180 170 162 157 162 160 160 153 161 168 184 194 188 199 213
289 309 332 330 322 317 312 305 294 285 271 258 253 244 236 237 229 226 234 239 231 226 217 219 218 224 222 216 218 210 210 209 210 210 211 206 200 196 190 190 183 186 185 178 181 177 178 180 185 186 184 183 185 182 181 184 184 183 182 180 181 182 183 183 182 180 179 177 178 181 171 168 165 161 167 167 161 163 166 172 186 189 190 203 213
348 340 335 337 329 328 330 327 325 322 316 311 302 292 288 276 252 238 242 242 232 228 226 226 224 225 225 219 218 210 213 212 213 213 211 203 199 194 191 192 188 187 183 184 179 180 184 186 186 184 183 183 182 184 185 184 182 180 181 182 181 182 182 181 181 183 182 181 179 174 172 170 172 171 173 164 163 169 168 179 187 194 194 206 214
360 0 359 360 1 354 350 346 342 339 335 329 318 302 280 264 266 253 244 243 238 225 227 228 228 226 229 224 219 214 213 215 215 214 209 202 200 194 188 193 191 190 183 183 186 184 187 185 187 182 184 183 182 182 183 184 183 181 179 178 178 180 180 180 185 183 179 177 174 171 173 175 175 171 166 170 169 170 178 185 192 189 208 205 224
14 15 12 6 358 360 358 353 352 348 342 340 330 313 298 289 280 274 248 243 241 222 227 228 229 230 231 229 222 219 218 219 219 212 203 201 195 191 192 189 184 190 190 189 186 187 186 185 185 184 185 180 179 181 182 182 183 182 180 180 178 177 177 178 177 177 174 175 175 174 177 178 172 169 167 169 166 172 165 185 188 188 203 216 221
12 7 3 0 360 354 352 353 349 349 350 346 344 341 337 328 316 307 302 276 260 236 238 234 233 233 234 229 224 221 221 221 210 202 202 198 195 193 188 185 188 192 189 189 185 180 178 185 187 186 183 182 183 185 183 180 179 183 183 179 177 176 175 174 172 173 174 168 168 174 176 171 168 173 180 174 174 170 166 178 197 192 208 213 224
1 357 355 353 350 349 349 348 350 349 346 345 345 344 341 335 327 318 311 301 282 250 246 244 237 238 237 231 226 223 219 211 203 205 204 198 194 188 185 188 189 187 184 180 180 183 184 185 182 184 185 186 191 189 185 181 180 178 178 177 173 175 174 172 169 165 161 168 173 169 175 176 180 184 188 187 187 191 190 188 194 194 199 211 217
356 349 348 346 344 343 345 346 344 345 341 339 337 335 334 332 329 323 313 305 286 261 256 248 246 242 239 232 225 222 209 207 209 205 200 194 190 186 186 185 183 183 183 181 181 186 189 186 186 185 186 190 191 189 184 184 183 179 173 173 173 172 173 171 164 150 160 167 170 168 170 184 184 188 190 194 195 198 205 208 208 209 208 204 206
350 343 340 341 342 340 338 337 335 334 336 337 335 330 329 327 324 321 317 312 298 270 260 251 245 248 240 230 223 215 206 212 201 203 196 190 181 179 184 184 182 183 186 182 187 191 187 188 188 188 190 191 190 186 185 185 182 178 174 170 170 169 169 172 154 157 159 163 165 162 171 180 179 182 180 196 203 208 213 220 224 230 235 238 238
343 340 338 332 330 330 325 323 328 329 331 328 326 325 326 324 321 316 318 318 308 282 266 261 257 249 243 232 222 212 212 206 204 198 188 181 181 183 185 183 189 188 174 184 192 185 192 189 187 190 193 191 192 185 186 184 180 178 174 168 172 167 167 170 157 164 165 164 163 163 167 176 175 184 187 188 187 209 218 221 229 235 240 244 249
335 333 329 324 321 323 322 319 316 317 316 313 317 320 318 316 313 317 323 323 319 303 277 270 270 261 249 233 220 214 213 212 200 189 183 185 186 192 190 186 178 175 187 190 188 191 189 190 191 190 190 189 189 185 184 183 181 177 173 168 167 164 166 167 162 164 162 163 167 166 166 170 172 181 176 176 183 189 213 229 241 246 244 251 252
332 332 329 326 322 318 319 323 324 324 323 327 330 335 328 324 326 325 327 328 324 315 301 285 280 274 258 240 226 220 222 210 193 188 187 193 194 190 184 187 185 188 188 190 188 190 192 190 188 186 185 187 187 184 185 184 180 176 173 160 160 161 162 165 158 161 169 167 167 169 167 163 166 167 163 168 163 185 198 213 226 232 237 237 241
331 327 326 325 323 318 316 317 318 320 320 324 324 328 328 321 321 324 326 328 325 321 316 314 304 297 280 259 240 236 229 210 194 191 195 199 197 193 191 187 186 190 191 185 192 190 188 187 187 185 186 187 180 184 184 183 179 175 169 151 161 163 163 165 166 170 170 171 170 163 160 156 157 160 180 190 193 190 199 211 217 224 232 236 233
321 321 319 318 315 313 313 310 318 321 322 325 326 326 322 319 321 323 326 325 329 329 326 316 306 302 292 279 259 241 232 212 199 199 205 203 198 200 195 182 185 189 186 189 191 187 186 183 183 184 182 178 171 185 186 184 183 180 171 152 162 163 165 166 170 169 170 170 158 158 157 156 157 158 188 197 200 198 198 208 213 212 214 240 264
314 315 313 315 318 317 319 323 323 324 323 323 326 324 323 323 324 326 330 327 332 333 327 316 308 305 297 281 259 244 232 213 204 211 208 204 200 195 193 183 188 186 188 190 179 177 180 181 181 183 182 174 174 184 185 185 183 186 168 161 166 167 165 166 164 166 164 164 164 169 168 162 165 175 193 200 203 205 197 187 187 211 237 246 244
316 316 316 318 322 322 324 326 327 327 330 330 326 326 325 325 325 327 325 324 330 331 329 320 310 300 286 265 244 232 227 214 213 215 203 200 194 192 186 180 189 185 187 176 176 177 176 177 181 179 175 175 176 184 188 188 187 188 170 166 167 167 164 166 164 162 162 162 169 178 179 173 177 188 196 200 202 200 181 182 196 225 226 224 242
315 313 313 316 319 327 328 331 329 328 331 331 329 327 326 324 325 325 325 324 325 325 313 302 298 293 283 265 243 232 225 216 216 205 193 196 174 166 175 180 185 182 179 177 179 179 178 182 176 177 181 175 170 182 191 191 190 187 171 167 171 168 171 165 165 164 159 170 173 181 194 189 186 191 195 197 197 197 184 191 210 199 205 238 262
318 319 324 320 325 330 326 325 328 328 331 331 329 326 324 324 323 325 323 320 319 316 312 307 302 300 291 273 255 236 228 220 198 189 176 167 172 176 167 173 175 172 166 172 178 177 176 178 179 181 180 181 177 179 190 192 191 190 173 171 177 180 170 166 168 165 169 171 173 181 181 195 193 191 192 193 193 202 203 203 209 198 221 247 249
315 320 325 326 327 324 322 323 325 328 325 328 330 326 321 322 321 320 321 317 318 316 312 311 310 305 300 287 270 257 231 199 162 152 162 178 175 164 172 173 172 169 173 176 175 175 175 175 177 178 183 179 179 183 186 194 191 193 182 175 171 182 171 163 165 166 169 171 175 176 179 193 195 190 186 188 195 199 208 176 211 239 249 255 263
321 318 320 329 325 323 322 319 320 323 325 325 329 322 318 318 316 316 318 319 317 315 313 310 306 303 296 285 265 244 217 171 171 171 168 171 159 161 169 173 172 171 175 175 177 176 173 173 176 184 182 174 179 187 194 195 194 194 186 176 173 171 176 172 167 168 172 168 166 175 170 186 181 173 184 189 192 199 206 221 226 237 245 263 313
310 309 317 332 324 318 317 315 316 318 322 325 327 321 315 313 310 316 317 315 319 322 322 314 307 298 291 276 252 231 209 182 176 172 174 167 168 166 169 179 176 176 179 180 185 179 178 181 172 163 161 167 168 175 197 200 196 195 188 176 175 176 178 169 169 164 161 167 161 156 166 174 171 183 183 186 189 192 176 196 217 234 258 52 80
308 310 319 324 318 317 314 310 309 315 319 322 323 317 312 308 309 319 315 324 329 329 326 318 310 301 285 271 249 233 211 191 184 176 178 177 174 171 176 183 179 189 188 190 190 185 189 187 170 169 150 152 170 185 191 201 200 196 190 177 174 173 177 172 167 161 158 151 148 155 165 172 180 181 181 166 121 120 152 190 217 235 71 82 76
303 309 322 323 319 312 309 308 309 310 317 319 316 315 308 303 309 312 318 330 326 323 319 314 310 300 285 269 255 241 221 208 194 191 193 187 182 185 186 182 187 195 195 195 191 191 193 188 177 150 161 154 164 117 189 192 197 193 191 175 172 175 174 174 163 162 158 159 163 168 173 177 176 160 132 108 115 151 182 190 170 80 88 110 134
297 300 317 319 316 313 308 307 305 306 314 316 309 305 298 299 302 310 327 328 321 314 310 306 303 300 287 265 249 243 225 217 208 204 198 190 190 190 191 191 192 193 196 200 197 195 195 192 168 180 149 162 160 175 185 189 189 187 186 173 171 174 173 167 158 161 162 164 168 171 168 148 128 137 132 130 128 122 99 81 88 115 149 171 183
290 300 308 303 299 297 300 303 301 300 312 311 304 300 298 301 310 325 328 321 311 305 303 301 297 296 288 266 247 236 227 218 210 203 202 200 197 196 198 199 194 194 190 198 196 199 200 193 163 157 155 148 171 185 190 188 188 182 181 170 168 164 168 156 155 156 148 139 131 130 127 112 111 80 91 70 67 88 121 128 147 165 172 193 226
293 297 303 297 301 300 297 297 294 299 308 306 300 299 302 309 313 317 315 310 303 300 298 293 292 291 283 268 243 236 223 223 217 210 215 208 196 199 207 215 218 211 207 199 195 205 204 199 183 177 168 173 169 191 197 189 186 185 176 168 163 167 150 146 154 143 126 117 116 119 130 135 137 139 124 134 120 112 143 170 177 187 186 179 186
285 289 289 290 288 288 294 295 293 298 300 295 294 294 295 297 307 306 305 302 298 297 293 285 281 282 278 274 252 242 231 226 221 214 214 222 221 218 215 214 215 207 219 223 217 213 198 185 186 197 189 186 192 194 176 183 186 182 180 171 164 159 154 148 149 147 140 135 144 148 158 155 157 159 164 166 168 162 165 171 189 216 152 156 225
296 299 293 289 289 291 292 289 290 296 292 292 293 289 288 293 303 299 298 292 289 289 287 284 281 277 275 274 263 247 235 226 223 221 213 214 215 219 223 224 223 212 211 219 219 216 198 195 188 184 194 205 189 178 182 184 183 181 175 169 160 147 147 152 151 137 135 150 155 158 159 154 168 166 172 172 150 161 176 178 178 171 186 226 248